This demonstration page uses our WeatherBlox Daily Observations layout. Learn more.

36.17497, -115.13722

Hourly Observations for March 4, 2018

Temp ( °F °C ) Dew Point ( °F °C ) Humidity (%) Winds ( mph kmh ) Pressure ( in mb ) Visibility ( mi km ) Precip ( " mm )
12:53 am 00:53 Clear 48 8.9 19 -7.2 32 32 SW 15 24 29.97 1015 10 16.0934 0 0
1:53 am 01:53 Clear 47 8.3 22 -5.6 37 37 SSW 12 19 29.98 1015 10 16.0934 0 0
2:53 am 02:53 Clear 45 7.2 23 -5 42 42 NNW 7 11 30 1016 10 16.0934 0 0
3:53 am 03:53 Clear 45 7.2 25 -3.9 46 46 W 5 7 30.02 1017 10 16.0934 0 0
4:53 am 04:53 Clear 42 5.6 25 -3.9 51 51 WSW 7 11 30.03 1017 10 16.0934 0 0
5:53 am 05:53 Clear 43 6.1 23 -5 45 45 W 6 9 30.05 1018 10 16.0934 0 0
6:53 am 06:53 Sunny 44 6.7 24 -4.4 45 45 WNW 8 13 30.07 1018 10 16.0934 0 0
7:53 am 07:53 Sunny 47 8.3 25 -3.9 42 42 NNW 18 30 30.1 1019 10 16.0934 0 0
8:53 am 08:53 Sunny 49 9.4 24 -4.4 38 38 N 21 33 30.13 1020 10 16.0934 0 0
9:53 am 09:53 Sunny 51 10.6 14 -10 23 23 N 21 33 30.14 1021 10 16.0934 0 0
10:53 am 10:53 Sunny 53 11.7 11 -11.7 18 18 NNW 21 33 30.15 1021 10 16.0934 0 0
11:53 am 11:53 Sunny 54 12.2 7 -13.9 15 15 NNW 15 24 30.17 1022 10 16.0934 0 0
12:53 pm 12:53 Sunny 56 13.3 1 -17.2 10 10 NNW 14 22 30.17 1022 10 16.0934 0 0
1:53 pm 13:53 Sunny 57 13.9 -2 -18.9 9 9 NNW 17 28 30.16 1021 10 16.0934 0 0
2:53 pm 14:53 Sunny 58 14.4 -6 -21.1 7 7 N 18 30 30.16 1022 10 16.0934 0 0
3:53 pm 15:53 Sunny 58 14.4 -7 -21.7 7 7 NNW 16 26 30.18 1022 10 16.0934 0 0
4:53 pm 16:53 Sunny 56 13.3 0 -17.8 10 10 NNW 15 24 30.19 1022 10 16.0934 0 0
5:53 pm 17:53 Clear 54 12.2 0 -17.8 11 11 NNW 10 17 30.21 1023 10 16.0934 0 0
6:53 pm 18:53 Clear 53 11.7 1 -17.2 12 12 NNW 9 15 30.22 1023 10 16.0934 0 0
7:53 pm 19:53 Clear 50 10 3 -16.1 14 14 N 8 13 30.25 1024 10 16.0934 0 0
8:53 pm 20:53 Clear 49 9.4 4 -15.6 16 16 N 7 11 30.26 1025 10 16.0934 0 0
9:53 pm 21:53 Clear 48 8.9 9 -12.8 20 20 NNW 12 19 30.27 1025 10 16.0934 0 0
10:53 pm 22:53 Clear 47 8.3 10 -12.2 22 22 N 8 13 30.28 1025 10 16.0934 0 0
11:53 pm 23:53 Clear 45 7.2 12 -11.1 26 26 N 8 13 30.29 1026 10 16.0934 0 0

Powered by AerisWeather